Home   Weather   Wiehl   Past weeks

Flag for Germany Past Weather in Wiehl, North Rhine-Westphalia, Germany — Yesterday and Last 2 Weeks

Now
48 °F

Scattered showers. Partly sunny.


Feels Like: 48 °F
Forecast: 34 / 52 °F
Wind: 2 mph from North

Location: Koeln / Bonn

Current Time: Apr 28, 2017 at 6:20:37 pm

Latest Report: Apr 28, 2017 at 5:50 pm


Visibility: N/A

Pressure: 29.95 "Hg

Humidity: 82%

Dew Point: 43 °F

Location of WiehlLocation

Past Weather in Wiehl — Graph

°F

Wiehl Temperature Yesterday

Maximum temperature yesterday: 54 °F (at 4:50 pm)
Minimum temperature yesterday: 30 °F (at 6:50 am)
Average temperature yesterday: 43 °F

High & Low Weather Summary for the Past Weeks

 TemperatureHumidityPressure
High61 °F (Apr 24, 3:20 pm)100% (Apr 14, 6:20 am)30.63 "Hg (Apr 14, 6:20 am)
Low25 °F (Apr 20, 6:20 am)32% (Apr 20, 3:50 pm)29.68 "Hg (Apr 25, 2:50 am)
Average44 °F69%30.13 "Hg
* Reported Apr 13 4:20 pm — Apr 28 4:50 pm, Wiehl, Weather by CustomWeather, © 2017

Note: Actual official high and low records may vary slightly from our data, if they occured in-between our weather recording intervals... More about our weather records

Advertising

Wiehl Weather History for the Previous 24 Hours

Scroll right to see more
 ConditionsComfort  
Time TempWeatherWind HumidityBarometerVisibility
4:50 pm
Fri, Apr 28
48 °FRain showers. Partly sunny.9 mph76%29.95 "HgN/A
4:20 pm52 °FSprinkles. Broken clouds.3 mph58%29.95 "HgN/A
3:50 pm52 °FSprinkles. Broken clouds.6 mph58%29.95 "HgN/A
3:20 pm52 °FBroken clouds.5 mph58%29.95 "HgN/A
2:50 pm52 °FBroken clouds.6 mph58%29.95 "HgN/A
2:20 pm50 °FPartly sunny.9 mph62%29.95 "HgN/A
1:50 pm50 °FPartly sunny.13 mph62%29.95 "HgN/A
1:20 pm50 °FPartly sunny.9 mph54%29.95 "HgN/A
12:50 pm52 °FBroken clouds.9 mph50%29.95 "HgN/A
12:20 pm50 °FPartly sunny.7 mph58%29.95 "HgN/A
11:50 am50 °FPartly sunny.9 mph54%29.95 "HgN/A
11:20 am50 °FPartly sunny.7 mph54%29.95 "HgN/A
10:50 am48 °FPartly sunny.6 mph58%29.95 "HgN/A
10:32 am46 °FPartly sunny.6 mph62%29.95 "HgN/A
9:50 am48 °FPartly sunny.6 mph54%29.95 "HgN/A
9:20 am45 °FPartly sunny.3 mph61%29.95 "HgN/A
8:50 am45 °FScattered clouds.3 mph66%29.95 "HgN/A
8:20 am41 °FPassing clouds.5 mph81%29.95 "HgN/A
7:50 am37 °FPassing clouds.5 mph87%29.95 "HgN/A
7:20 am36 °FPassing clouds.1 mph93%29.95 "HgN/A
6:50 am36 °FPassing clouds.2 mph93%29.95 "HgN/A
6:20 am36 °FPassing clouds.2 mph93%29.95 "HgN/A
5:57 am36 °FPassing clouds.1 mph93%29.95 "HgN/A
5:50 am36 °FPassing clouds.No wind93%29.95 "HgN/A
5:20 am37 °FPassing clouds.2 mph87%29.95 "HgN/A
4:50 am37 °FPassing clouds.3 mph87%29.98 "HgN/A
4:20 am37 °FPassing clouds.2 mph87%29.98 "HgN/A
3:50 am39 °FClear.2 mph87%29.98 "Hg10 mi
3:20 am41 °FClear.2 mph81%29.98 "Hg10 mi
2:50 am41 °FPartly cloudy.3 mph81%29.98 "HgN/A
2:20 am41 °FClear.3 mph81%29.98 "Hg10 mi
1:50 am41 °FClear.1 mph81%29.98 "Hg10 mi
1:20 am43 °FClear.2 mph76%29.98 "Hg10 mi
12:50 am43 °FClear.1 mph76%29.98 "Hg10 mi
12:20 am43 °FClear.1 mph76%29.98 "Hg10 mi
11:50 pm
Thu, Apr 27
43 °FPassing clouds.3 mph71%29.98 "HgN/A
11:20 pm43 °FClear.1 mph71%30.01 "Hg10 mi
10:50 pm43 °FClear.2 mph71%30.01 "Hg10 mi
10:20 pm45 °FPassing clouds.3 mph61%29.98 "HgN/A
9:50 pm45 °FClear.8 mph61%29.98 "Hg10 mi
9:20 pm45 °FPassing clouds.5 mph66%29.98 "HgN/A
8:50 pm45 °FClear.5 mph66%29.98 "Hg10 mi
8:20 pm46 °FSunny.6 mph62%29.98 "Hg10 mi
7:50 pm46 °FSunny.12 mph57%29.98 "Hg10 mi
7:20 pm48 °FSunny.16 mph58%29.98 "Hg10 mi
6:50 pm52 °FSunny.13 mph41%29.95 "Hg10 mi
6:20 pm52 °FPassing clouds.9 mph35%29.95 "HgN/A
Weather by CustomWeather, © 2017

See weather overviewHow to use our weather pages